| time (UTC) | temp F | wind direction | speed knots | gust knots | rain 1hr in | rain 24hr in | rain mn in | humidity % | barometer mb |
| 20260503013700 | 66 | 164 | 0.0 | 0.0 | 0.00 | 0.00 | 0.00 | 33 | 1016.1 |
| 20260503013158 | 66 | 165 | 0.0 | 0.0 | 0.00 | 0.00 | 0.00 | 33 | 1016.1 |
| 20260503012655 | 66 | 174 | 0.9 | 0.9 | 0.00 | 0.00 | 0.00 | 33 | 1016.4 |
| 20260503012152 | 67 | 219 | 1.7 | 2.6 | 0.00 | 0.00 | 0.00 | 33 | 1016.2 |
| 20260503011648 | 68 | 244 | 1.7 | 1.7 | 0.00 | 0.00 | 0.00 | 32 | 1016.2 |
| 20260503011146 | 69 | 180 | 0.0 | 0.0 | 0.00 | 0.00 | 0.00 | 30 | 1016.4 |
| 20260503010642 | 68 | 56 | 0.9 | 1.7 | 0.00 | 0.00 | 0.00 | 31 | 1016.6 |
| 20260503010139 | 66 | 108 | 0.0 | 0.0 | 0.00 | 0.00 | 0.00 | 32 | 1016.5 |
| 20260503005636 | 66 | 298 | 1.7 | 1.7 | 0.00 | 0.00 | 0.00 | 33 | 1016.6 |
| 20260503005133 | 66 | 324 | 0.9 | 0.9 | 0.00 | 0.00 | 0.00 | 33 | 1016.6 |
| 20260503004629 | 66 | 6 | 0.0 | 0.9 | 0.00 | 0.00 | 0.00 | 33 | 1016.6 |
| 20260503004128 | 66 | 343 | 0.0 | 0.0 | 0.00 | 0.00 | 0.00 | 32 | 1016.7 |
| 20260503003625 | 66 | 313 | 0.9 | 0.9 | 0.00 | 0.00 | 0.00 | 33 | 1016.7 |
| 20260503003122 | 67 | 346 | 1.7 | 1.7 | 0.00 | 0.00 | 0.00 | 33 | 1017.0 |
| 20260503002619 | 67 | 344 | 2.6 | 3.5 | 0.00 | 0.00 | 0.00 | 33 | 1016.9 |
| 20260503002115 | 67 | 18 | 0.9 | 0.9 | 0.00 | 0.00 | 0.00 | 32 | 1017.1 |
| 20260503001611 | 67 | 4 | 1.7 | 1.7 | 0.00 | 0.00 | 0.00 | 33 | 1017.0 |
| 20260503001109 | 67 | 341 | 0.9 | 0.9 | 0.00 | 0.00 | 0.00 | 32 | 1016.8 |
| 20260503000606 | 67 | 162 | 0.0 | 0.0 | 0.00 | 0.00 | 0.00 | 33 | 1016.9 |
| 20260503000103 | 66 | 144 | 0.0 | 0.0 | 0.00 | 0.00 | 0.00 | 33 | 1016.9 |
| 20260502235559 | 66 | 139 | 1.7 | 2.6 | 0.00 | 0.00 | 0.00 | 33 | 1017.2 |
| 20260502235058 | 66 | 178 | 0.0 | 0.0 | 0.00 | 0.00 | 0.00 | 35 | 1016.9 |
| 20260502234553 | 66 | 176 | 0.0 | 0.9 | 0.00 | 0.00 | 0.00 | 36 | 1017.0 |
| 20260502234051 | 67 | 130 | 0.9 | 1.7 | 0.00 | 0.00 | 0.00 | 34 | 1017.1 |
| 20260502233551 | 67 | 161 | 0.9 | 0.9 | 0.00 | 0.00 | 0.00 | 33 | 1017.2 |
| 20260502233049 | 67 | 178 | 0.0 | 0.0 | 0.00 | 0.00 | 0.00 | 33 | 1017.3 |
| 20260502232545 | 66 | 70 | 0.0 | 0.0 | 0.00 | 0.00 | 0.00 | 34 | 1017.4 |
| 20260502232042 | 67 | 70 | 1.7 | 2.6 | 0.00 | 0.00 | 0.00 | 33 | 1017.4 |
| 20260502231539 | 68 | 5 | 1.7 | 2.6 | 0.00 | 0.00 | 0.00 | 32 | 1017.4 |
| 20260502231037 | 69 | 331 | 6.1 | 7.0 | 0.00 | 0.00 | 0.00 | 33 | 1017.6 |
| 20260502230535 | 69 | 344 | 1.7 | 2.6 | 0.00 | 0.00 | 0.00 | 32 | 1017.2 |
| 20260502230033 | 69 | 239 | 2.6 | 2.6 | 0.00 | 0.00 | 0.00 | 33 | 1017.4 |
| 20260502225528 | 69 | 347 | 4.3 | 5.2 | 0.00 | 0.00 | 0.00 | 32 | 1017.6 |
| 20260502225026 | 67 | 359 | 2.6 | 3.5 | 0.00 | 0.00 | 0.00 | 33 | 1017.7 |
| 20260502224522 | 67 | 332 | 2.6 | 3.5 | 0.00 | 0.00 | 0.00 | 34 | 1017.8 |
| 20260502224019 | 66 | 316 | 2.6 | 3.5 | 0.00 | 0.00 | 0.00 | 35 | 1017.9 |
| 20260502223517 | 67 | 336 | 3.5 | 3.5 | 0.00 | 0.00 | 0.00 | 34 | 1018.2 |
| 20260502223015 | 67 | 312 | 3.5 | 5.2 | 0.00 | 0.00 | 0.00 | 33 | 1017.9 |
| 20260502222512 | 67 | 226 | 1.7 | 2.6 | 0.00 | 0.00 | 0.00 | 33 | 1018.1 |
| 20260502222008 | 67 | 270 | 1.7 | 1.7 | 0.00 | 0.00 | 0.00 | 34 | 1018.1 |
| 20260502221504 | 67 | 340 | 3.5 | 3.5 | 0.00 | 0.00 | 0.00 | 35 | 1018.2 |
| 20260502221001 | 67 | 272 | 2.6 | 3.5 | 0.00 | 0.00 | 0.00 | 34 | 1018.3 |
| 20260502220456 | 69 | 301 | 5.2 | 6.1 | 0.00 | 0.00 | 0.00 | 33 | 1018.4 |
| 20260502215953 | 69 | 343 | 4.3 | 5.2 | 0.00 | 0.00 | 0.00 | 33 | 1018.5 |
| 20260502215451 | 67 | 146 | 0.0 | 0.0 | 0.00 | 0.00 | 0.00 | 33 | 1018.5 |
| 20260502214948 | 67 | 243 | 1.7 | 2.6 | 0.00 | 0.00 | 0.00 | 34 | 1018.5 |
| 20260502214445 | 68 | 215 | 2.6 | 2.6 | 0.00 | 0.00 | 0.00 | 33 | 1018.4 |
| 20260502213942 | 68 | 300 | 3.5 | 5.2 | 0.00 | 0.00 | 0.00 | 34 | 1018.8 |
| 20260502213438 | 68 | 317 | 1.7 | 2.6 | 0.00 | 0.00 | 0.00 | 34 | 1019.0 |
| 20260502212937 | 68 | 94 | 0.0 | 0.9 | 0.00 | 0.00 | 0.00 | 32 | 1018.8 |
| 20260502212436 | 69 | 22 | 3.5 | 3.5 | 0.00 | 0.00 | 0.00 | 33 | 1019.2 |
| 20260502211932 | 69 | 340 | 7.0 | 7.8 | 0.00 | 0.00 | 0.00 | 34 | 1019.1 |
| 20260502211428 | 67 | 119 | 0.0 | 0.0 | 0.00 | 0.00 | 0.00 | 36 | 1019.2 |
| 20260502210926 | 67 | 213 | 4.3 | 5.2 | 0.00 | 0.00 | 0.00 | 34 | 1019.2 |
| 20260502210422 | 67 | 270 | 7.8 | 7.8 | 0.00 | 0.00 | 0.00 | 34 | 1019.2 |
| 20260502205920 | 67 | 9 | 3.5 | 3.5 | 0.00 | 0.00 | 0.00 | 35 | 1019.2 |
| 20260502205415 | 67 | 328 | 6.1 | 7.8 | 0.00 | 0.00 | 0.00 | 34 | 1019.2 |
| 20260502204913 | 67 | 343 | 3.5 | 3.5 | 0.00 | 0.00 | 0.00 | 35 | 1019.1 |
| 20260502204410 | 67 | 28 | 0.9 | 1.7 | 0.00 | 0.00 | 0.00 | 35 | 1019.3 |
| 20260502203908 | 68 | 336 | 3.5 | 5.2 | 0.00 | 0.00 | 0.00 | 34 | 1019.3 |
| 20260502203405 | 66 | 114 | 0.0 | 0.0 | 0.00 | 0.00 | 0.00 | 36 | 1019.4 |
| 20260502202900 | 65 | 20 | 1.7 | 3.5 | 0.00 | 0.00 | 0.00 | 38 | 1019.5 |
| 20260502202358 | 66 | 37 | 5.2 | 7.0 | 0.00 | 0.00 | 0.00 | 35 | 1019.6 |
| 20260502201856 | 67 | 274 | 5.2 | 6.1 | 0.00 | 0.00 | 0.00 | 36 | 1019.7 |
| 20260502201351 | 65 | 335 | 3.5 | 5.2 | 0.00 | 0.00 | 0.00 | 37 | 1019.6 |
| 20260502200848 | 64 | 35 | 5.2 | 6.1 | 0.00 | 0.00 | 0.00 | 38 | 1019.7 |
| 20260502200344 | 64 | 62 | 1.7 | 2.6 | 0.00 | 0.00 | 0.00 | 38 | 1019.9 |
| 20260502195842 | 64 | 350 | 4.3 | 5.2 | 0.00 | 0.00 | 0.00 | 38 | 1020.0 |
| 20260502195338 | 64 | 0 | 4.3 | 6.1 | 0.00 | 0.00 | 0.00 | 38 | 1020.1 |
| 20260502194835 | 64 | 28 | 5.2 | 6.1 | 0.00 | 0.00 | 0.00 | 37 | 1020.0 |
| 20260502194332 | 64 | 351 | 6.1 | 8.7 | 0.00 | 0.00 | 0.00 | 38 | 1020.0 |
| 20260502193828 | 66 | 20 | 5.2 | 7.8 | 0.00 | 0.00 | 0.00 | 36 | 1020.0 |
| 20260502193325 | 66 | 23 | 5.2 | 7.0 | 0.00 | 0.00 | 0.00 | 35 | 1020.0 |
| 20260502192821 | 66 | 3 | 6.1 | 7.0 | 0.00 | 0.00 | 0.00 | 37 | 1020.2 |
| 20260502192318 | 65 | 4 | 4.3 | 6.1 | 0.00 | 0.00 | 0.00 | 38 | 1020.1 |
| 20260502191815 | 64 | 355 | 4.3 | 6.1 | 0.00 | 0.00 | 0.00 | 38 | 1020.2 |
| 20260502191313 | 64 | 9 | 2.6 | 3.5 | 0.00 | 0.00 | 0.00 | 37 | 1020.2 |
| 20260502190810 | 64 | 359 | 3.5 | 5.2 | 0.00 | 0.00 | 0.00 | 36 | 1020.2 |
| 20260502190307 | 64 | 1 | 2.6 | 2.6 | 0.00 | 0.00 | 0.00 | 37 | 1020.3 |
| 20260502185802 | 64 | 26 | 3.5 | 3.5 | 0.00 | 0.00 | 0.00 | 37 | 1020.3 |
| 20260502185259 | 64 | 37 | 0.9 | 2.6 | 0.00 | 0.00 | 0.00 | 37 | 1020.3 |
| 20260502184755 | 65 | 284 | 2.6 | 2.6 | 0.00 | 0.00 | 0.00 | 36 | 1020.2 |
| 20260502184251 | 66 | 72 | 2.6 | 3.5 | 0.00 | 0.00 | 0.00 | 35 | 1020.2 |
| 20260502183748 | 64 | 222 | 1.7 | 2.6 | 0.00 | 0.00 | 0.00 | 37 | 1020.4 |
| 20260502183244 | 65 | 326 | 2.6 | 2.6 | 0.00 | 0.00 | 0.00 | 36 | 1020.3 |
| 20260502182739 | 66 | 46 | 1.7 | 2.6 | 0.00 | 0.00 | 0.00 | 36 | 1020.5 |
| 20260502182235 | 65 | 92 | 4.3 | 5.2 | 0.00 | 0.00 | 0.00 | 35 | 1020.5 |
| 20260502181732 | 66 | 125 | 3.5 | 5.2 | 0.00 | 0.00 | 0.00 | 36 | 1020.5 |
| 20260502181231 | 68 | 3 | 3.5 | 3.5 | 0.00 | 0.00 | 0.00 | 33 | 1020.5 |
| 20260502180728 | 67 | 11 | 5.2 | 7.0 | 0.00 | 0.00 | 0.00 | 34 | 1020.8 |
| 20260502180226 | 66 | 339 | 3.5 | 5.2 | 0.00 | 0.00 | 0.00 | 35 | 1020.7 |
| 20260502170150 | 65 | 282 | 1.7 | 1.7 | 0.00 | 0.00 | 0.00 | 37 | 1020.9 |
| 20260502164136 | 64 | 75 | 3.5 | 5.2 | 0.00 | 0.00 | 0.00 | 37 | 1020.8 |
| 20260502163632 | 64 | 37 | 4.3 | 6.1 | 0.00 | 0.00 | 0.00 | 38 | 1020.9 |
| 20260502163129 | 64 | 22 | 4.3 | 5.2 | 0.00 | 0.00 | 0.00 | 37 | 1021.2 |
| 20260502162626 | 64 | 72 | 1.7 | 2.6 | 0.00 | 0.00 | 0.00 | 38 | 1021.1 |
| 20260502162123 | 63 | 0 | 4.3 | 5.2 | 0.00 | 0.00 | 0.00 | 39 | 1020.9 |
| 20260502161620 | 63 | 335 | 2.6 | 2.6 | 0.00 | 0.00 | 0.00 | 39 | 1021.1 |
| 20260502161117 | 63 | 22 | 4.3 | 5.2 | 0.00 | 0.00 | 0.00 | 38 | 1021.2 |
| 20260502160615 | 63 | 28 | 3.5 | 3.5 | 0.00 | 0.00 | 0.00 | 38 | 1021.2 |
| 20260502160114 | 63 | 73 | 2.6 | 3.5 | 0.00 | 0.00 | 0.00 | 39 | 1021.3 |
| 20260502152028 | 60 | 71 | 2.6 | 5.2 | 0.00 | 0.00 | 0.00 | 41 | 1021.2 |
| 20260502151525 | 61 | 82 | 2.6 | 3.5 | 0.00 | 0.00 | 0.00 | 40 | 1021.2 |
| 20260502151022 | 60 | 105 | 1.7 | 1.7 | 0.00 | 0.00 | 0.00 | 41 | 1020.9 |
| 20260502150520 | 60 | 86 | 7.8 | 7.8 | 0.00 | 0.00 | 0.00 | 41 | 1020.8 |
| 20260502130404 | 50 | 355 | 2.6 | 3.5 | 0.00 | 0.00 | 0.00 | 53 | 1020.1 |
| 20260502123347 | 46 | 8 | 3.5 | 3.5 | 0.00 | 0.00 | 0.00 | 57 | 1019.9 |
| 20260502122844 | 46 | 0 | 2.6 | 3.5 | 0.00 | 0.00 | 0.00 | 57 | 1019.4 |
| 20260502122339 | 46 | 353 | 1.7 | 1.7 | 0.00 | 0.00 | 0.00 | 56 | 1019.4 |
| 20260502121838 | 47 | 5 | 3.5 | 3.5 | 0.00 | 0.00 | 0.00 | 56 | 1019.5 |
| 20260502121335 | 47 | 0 | 3.5 | 3.5 | 0.00 | 0.00 | 0.00 | 55 | 1019.5 |
| 20260502120833 | 48 | 5 | 3.5 | 3.5 | 0.00 | 0.00 | 0.00 | 54 | 1019.3 |
| 20260502120328 | 48 | 10 | 3.5 | 3.5 | 0.00 | 0.00 | 0.00 | 54 | 1019.3 |
| 20260502115826 | 48 | 359 | 4.3 | 6.1 | 0.00 | 0.00 | 0.00 | 53 | 1019.2 |
| 20260502115323 | 49 | 1 | 4.3 | 5.2 | 0.00 | 0.00 | 0.00 | 52 | 1019.1 |
| 20260502114820 | 49 | 350 | 5.2 | 6.1 | 0.00 | 0.00 | 0.00 | 51 | 1019.2 |
| 20260502114316 | 49 | 22 | 3.5 | 3.5 | 0.00 | 0.00 | 0.00 | 51 | 1019.0 |
| 20260502113813 | 48 | 357 | 3.5 | 3.5 | 0.00 | 0.00 | 0.00 | 51 | 1019.1 |
| 20260502113311 | 48 | 340 | 3.5 | 5.2 | 0.00 | 0.00 | 0.00 | 51 | 1019.0 |
| 20260502112809 | 49 | 310 | 3.5 | 5.2 | 0.00 | 0.00 | 0.00 | 50 | 1019.0 |
| 20260502112306 | 50 | 349 | 2.6 | 2.6 | 0.00 | 0.00 | 0.00 | 47 | 1018.8 |
| 20260502111803 | 48 | 49 | 5.2 | 7.0 | 0.00 | 0.00 | 0.00 | 51 | 1018.8 |
| 20260502111301 | 49 | 355 | 2.6 | 3.5 | 0.00 | 0.00 | 0.00 | 49 | 1018.7 |
| 20260502110758 | 49 | 340 | 2.6 | 2.6 | 0.00 | 0.00 | 0.00 | 48 | 1018.7 |
| 20260502110256 | 50 | 285 | 2.6 | 2.6 | 0.00 | 0.00 | 0.00 | 46 | 1018.4 |
| 20260502105754 | 51 | 325 | 1.7 | 2.6 | 0.00 | 0.00 | 0.00 | 46 | 1018.2 |
| 20260502105250 | 52 | 13 | 3.5 | 3.5 | 0.00 | 0.00 | 0.00 | 44 | 1018.2 |
| 20260502104748 | 51 | 40 | 6.1 | 7.8 | 0.00 | 0.00 | 0.00 | 46 | 1018.0 |
| 20260502104245 | 48 | 12 | 2.6 | 3.5 | 0.00 | 0.00 | 0.00 | 47 | 1018.1 |
| 20260502103742 | 46 | 300 | 2.6 | 2.6 | 0.00 | 0.00 | 0.00 | 49 | 1017.9 |
| 20260502103240 | 47 | 303 | 3.5 | 3.5 | 0.00 | 0.00 | 0.00 | 47 | 1018.0 |
| 20260502102737 | 48 | 327 | 0.9 | 1.7 | 0.00 | 0.00 | 0.00 | 46 | 1017.8 |
| 20260502102233 | 48 | 317 | 3.5 | 3.5 | 0.00 | 0.00 | 0.00 | 46 | 1017.9 |
| 20260502101731 | 48 | 352 | 1.7 | 1.7 | 0.00 | 0.00 | 0.00 | 45 | 1017.8 |
| 20260502101229 | 48 | 7 | 0.9 | 1.7 | 0.00 | 0.00 | 0.00 | 45 | 1017.7 |
| 20260502100727 | 48 | 303 | 2.6 | 2.6 | 0.00 | 0.00 | 0.00 | 45 | 1017.7 |
| 20260502100226 | 47 | 337 | 4.3 | 5.2 | 0.00 | 0.00 | 0.00 | 47 | 1017.8 |
| 20260502091159 | 42 | 306 | 2.6 | 2.6 | 0.00 | 0.00 | 0.00 | 51 | 1016.9 |
| 20260502090657 | 43 | 300 | 3.5 | 3.5 | 0.00 | 0.00 | 0.00 | 51 | 1017.2 |
| 20260502090154 | 44 | 320 | 3.5 | 3.5 | 0.00 | 0.00 | 0.00 | 49 | 1017.2 |
| 20260502071055 | 49 | 290 | 1.7 | 2.6 | 0.00 | 0.00 | 0.00 | 40 | 1016.5 |
| 20260502070553 | 48 | 299 | 2.6 | 2.6 | 0.00 | 0.00 | 0.00 | 41 | 1016.2 |
| 20260502070051 | 47 | 286 | 2.6 | 2.6 | 0.00 | 0.00 | 0.00 | 41 | 1016.4 |
| 20260502065549 | 46 | 285 | 3.5 | 3.5 | 0.00 | 0.00 | 0.00 | 41 | 1016.5 |
| 20260502065046 | 45 | 297 | 2.6 | 2.6 | 0.00 | 0.00 | 0.00 | 41 | 1016.6 |
| 20260502064545 | 45 | 284 | 1.7 | 1.7 | 0.00 | 0.00 | 0.00 | 42 | 1016.6 |
| 20260502064041 | 42 | 283 | 2.6 | 3.5 | 0.00 | 0.00 | 0.00 | 46 | 1016.7 |
| 20260502063539 | 42 | 298 | 1.7 | 1.7 | 0.00 | 0.00 | 0.00 | 46 | 1016.5 |
| 20260502063037 | 42 | 255 | 1.7 | 1.7 | 0.00 | 0.00 | 0.00 | 45 | 1016.5 |
| 20260502062534 | 42 | 274 | 3.5 | 3.5 | 0.00 | 0.00 | 0.00 | 45 | 1016.6 |
| 20260502062032 | 44 | 273 | 1.7 | 1.7 | 0.00 | 0.00 | 0.00 | 42 | 1016.6 |
| 20260502061530 | 46 | 280 | 2.6 | 2.6 | 0.00 | 0.00 | 0.00 | 40 | 1016.4 |
| 20260502061026 | 45 | 286 | 3.5 | 3.5 | 0.00 | 0.00 | 0.00 | 40 | 1016.2 |
| 20260502060521 | 45 | 305 | 1.7 | 2.6 | 0.00 | 0.00 | 0.00 | 40 | 1016.5 |
| 20260502060019 | 45 | 295 | 2.6 | 2.6 | 0.00 | 0.00 | 0.00 | 40 | 1016.4 |
| 20260502055516 | 44 | 285 | 3.5 | 3.5 | 0.00 | 0.00 | 0.00 | 41 | 1016.4 |
| 20260502055015 | 46 | 278 | 2.6 | 2.6 | 0.00 | 0.00 | 0.00 | 39 | 1016.2 |
| 20260502054513 | 48 | 276 | 1.7 | 1.7 | 0.00 | 0.00 | 0.00 | 38 | 1016.1 |
| 20260502054010 | 48 | 347 | 0.9 | 0.9 | 0.00 | 0.00 | 0.00 | 37 | 1016.4 |
| 20260502053507 | 48 | 279 | 0.9 | 0.9 | 0.00 | 0.00 | 0.00 | 37 | 1016.2 |
| 20260502053005 | 46 | 249 | 0.9 | 0.9 | 0.00 | 0.00 | 0.00 | 38 | 1016.0 |
| 20260502052502 | 47 | 205 | 0.0 | 0.0 | 0.00 | 0.00 | 0.00 | 38 | 1016.2 |
| 20260502052000 | 48 | 270 | 0.0 | 0.0 | 0.00 | 0.00 | 0.00 | 37 | 1016.2 |
| 20260502051458 | 50 | 274 | 1.7 | 1.7 | 0.00 | 0.00 | 0.00 | 35 | 1016.2 |
| 20260502050955 | 50 | 280 | 1.7 | 1.7 | 0.00 | 0.00 | 0.00 | 35 | 1016.1 |
| 20260502050451 | 47 | 1 | 1.7 | 1.7 | 0.00 | 0.00 | 0.00 | 36 | 1016.2 |
| 20260502045949 | 47 | 215 | 0.0 | 0.0 | 0.00 | 0.00 | 0.00 | 36 | 1016.2 |
| 20260502045446 | 51 | 254 | 1.7 | 1.7 | 0.00 | 0.00 | 0.00 | 33 | 1016.1 |
| 20260502044943 | 51 | 281 | 2.6 | 2.6 | 0.00 | 0.00 | 0.00 | 33 | 1016.1 |
| 20260502044438 | 51 | 294 | 1.7 | 2.6 | 0.00 | 0.00 | 0.00 | 32 | 1016.0 |
| 20260502043936 | 51 | 308 | 3.5 | 3.5 | 0.00 | 0.00 | 0.00 | 32 | 1015.9 |
| 20260502043433 | 51 | 320 | 2.6 | 2.6 | 0.00 | 0.00 | 0.00 | 32 | 1016.0 |
| 20260502042932 | 52 | 296 | 2.6 | 2.6 | 0.00 | 0.00 | 0.00 | 31 | 1016.0 |
| 20260502042430 | 51 | 333 | 2.6 | 2.6 | 0.00 | 0.00 | 0.00 | 31 | 1015.9 |
| 20260502041927 | 52 | 280 | 2.6 | 2.6 | 0.00 | 0.00 | 0.00 | 30 | 1015.9 |
| 20260502041425 | 52 | 334 | 2.6 | 2.6 | 0.00 | 0.00 | 0.00 | 31 | 1015.9 |
| 20260502040921 | 54 | 294 | 3.5 | 3.5 | 0.00 | 0.00 | 0.00 | 29 | 1015.8 |
| 20260502040418 | 55 | 315 | 3.5 | 3.5 | 0.00 | 0.00 | 0.00 | 28 | 1016.0 |
| 20260502035914 | 53 | 286 | 3.5 | 3.5 | 0.00 | 0.00 | 0.00 | 29 | 1015.8 |
| 20260502035411 | 53 | 296 | 3.5 | 3.5 | 0.00 | 0.00 | 0.00 | 29 | 1015.8 |
| 20260502034909 | 54 | 309 | 2.6 | 2.6 | 0.00 | 0.00 | 0.00 | 28 | 1015.7 |
| 20260502034407 | 54 | 299 | 3.5 | 3.5 | 0.00 | 0.00 | 0.00 | 27 | 1015.7 |
| 20260502033905 | 54 | 288 | 3.5 | 3.5 | 0.00 | 0.00 | 0.00 | 27 | 1015.7 |
| 20260502033402 | 55 | 301 | 2.6 | 2.6 | 0.00 | 0.00 | 0.00 | 27 | 1015.6 |
| 20260502032859 | 55 | 282 | 2.6 | 2.6 | 0.00 | 0.00 | 0.00 | 27 | 1015.6 |
| 20260502032355 | 56 | 297 | 2.6 | 3.5 | 0.00 | 0.00 | 0.00 | 27 | 1015.4 |
| 20260502031853 | 57 | 297 | 2.6 | 2.6 | 0.00 | 0.00 | 0.00 | 26 | 1015.5 |
| 20260502031351 | 57 | 302 | 3.5 | 3.5 | 0.00 | 0.00 | 0.00 | 26 | 1015.5 |
| 20260502030849 | 58 | 307 | 2.6 | 2.6 | 0.00 | 0.00 | 0.00 | 26 | 1015.5 |
| 20260502030347 | 58 | 312 | 3.5 | 3.5 | 0.00 | 0.00 | 0.00 | 26 | 1015.3 |
| 20260502025844 | 59 | 301 | 2.6 | 2.6 | 0.00 | 0.00 | 0.00 | 26 | 1015.2 |
| 20260502025341 | 59 | 304 | 3.5 | 3.5 | 0.00 | 0.00 | 0.00 | 26 | 1015.3 |
| 20260502024839 | 60 | 302 | 3.5 | 3.5 | 0.00 | 0.00 | 0.00 | 26 | 1015.3 |
| 20260502024337 | 61 | 283 | 3.5 | 3.5 | 0.00 | 0.00 | 0.00 | 26 | 1015.0 |
| 20260502023834 | 62 | 304 | 3.5 | 5.2 | 0.00 | 0.00 | 0.00 | 26 | 1015.2 |
| 20260502023332 | 59 | 287 | 3.5 | 3.5 | 0.00 | 0.00 | 0.00 | 26 | 1015.0 |
| 20260502022830 | 60 | 288 | 2.6 | 2.6 | 0.00 | 0.00 | 0.00 | 25 | 1015.0 |
| 20260502022326 | 60 | 250 | 3.5 | 3.5 | 0.00 | 0.00 | 0.00 | 25 | 1014.7 |
| 20260502021823 | 62 | 247 | 3.5 | 3.5 | 0.00 | 0.00 | 0.00 | 24 | 1014.8 |
| 20260502021320 | 63 | 241 | 3.5 | 3.5 | 0.00 | 0.00 | 0.00 | 23 | 1014.8 |
| 20260502020817 | 64 | 247 | 2.6 | 2.6 | 0.00 | 0.00 | 0.00 | 23 | 1014.8 |
| 20260502020315 | 65 | 250 | 2.6 | 2.6 | 0.00 | 0.00 | 0.00 | 22 | 1014.9 |
| 20260502015812 | 66 | 241 | 2.6 | 2.6 | 0.00 | 0.00 | 0.00 | 21 | 1014.7 |
| 20260502015308 | 67 | 251 | 2.6 | 2.6 | 0.00 | 0.00 | 0.00 | 21 | 1014.8 |
| 20260502014806 | 69 | 244 | 3.5 | 3.5 | 0.00 | 0.00 | 0.00 | 19 | 1014.7 |
| 20260502014302 | 70 | 249 | 2.6 | 3.5 | 0.00 | 0.00 | 0.00 | 19 | 1014.9 |